#timestamp,LO_Frequency,Hit,Temp,Hum 
1479049215.1,286047014.8,N,0.0,0.0
1479049216.0,286047014.8,N,0.0,0.0
1479049235.8,286047016.7,N,0.0,0.0
1479049255.7,286047015.8,N,0.0,0.0
1479049275.5,286047018.4,N,0.0,0.0
1479049295.3,286047017.7,N,0.0,0.0
1479049315.2,286047020.1,N,0.0,0.0
1479049335.0,286047018.6,N,0.0,0.0
1479049335.9,286047018.6,N,0.0,0.0
1479049355.8,286047018.4,N,0.0,0.0
1479049375.6,286047017.6,N,0.0,0.0
1479049395.4,286047017.3,N,0.0,0.0
1479049415.3,286047018.0,N,0.0,0.0
1479049435.1,286047018.1,N,0.0,0.0
1479049455.8,286047018.4,N,0.0,0.0
1479049475.7,286047017.6,N,0.0,0.0
1479049495.5,286047017.9,N,0.0,0.0
1479049515.4,286047018.7,N,0.0,0.0
1479049535.2,286047016.1,N,0.0,0.0
1479049555.0,286047018.3,N,0.0,0.0
1479049555.9,286047018.3,N,0.0,0.0
1479049575.8,286047018.2,N,0.0,0.0
1479049595.6,286047015.9,N,0.0,0.0
1479049615.4,286047016.6,N,0.0,0.0
1479049635.3,286047022.0,N,0.0,0.0
1479049655.1,286047018.9,N,0.0,0.0
1479049675.8,286047018.9,N,0.0,0.0
1479049695.7,286047020.2,N,0.0,0.0
1479049715.5,286047020.4,N,0.0,0.0
1479049735.4,286047014.4,N,0.0,0.0
1479049755.2,286047016.0,N,0.0,0.0
1479049775.0,286047020.0,N,0.0,0.0
1479049775.9,286047020.0,N,0.0,0.0
1479049795.8,286047016.2,N,0.0,0.0
1479049815.6,286047014.2,N,0.0,0.0
1479049835.4,286047011.5,N,0.0,0.0
1479049855.3,286047009.8,N,0.0,0.0
1479049875.1,286047012.3,N,0.0,0.0
1479049895.9,286047002.9,N,0.0,0.0
1479049915.7,286047000.3,N,0.0,0.0
1479049935.5,286046997.2,N,0.0,0.0
1479049955.4,286046993.3,N,0.0,0.0
1479049975.2,286046989.0,N,0.0,0.0
1479049995.0,286046984.5,N,0.0,0.0
1479049996.0,286046984.5,N,0.0,0.0
1479050015.8,286046983.3,N,0.0,0.0
1479050035.6,286046981.8,N,0.0,0.0
1479050055.5,286046977.5,N,0.0,0.0
1479050075.3,286046977.9,N,0.0,0.0
1479050095.1,286046985.4,N,0.0,0.0
1479050115.9,286046989.9,N,0.0,0.0
1479050135.7,286046982.3,N,0.0,0.0
1479050155.6,286046980.3,N,0.0,0.0
1479050175.4,286046978.3,N,0.0,0.0
1479050195.2,286046975.2,N,0.0,0.0
1479050215.1,286046971.4,N,0.0,0.0
1479050216.0,286046971.4,N,0.0,0.0
1479050235.8,286046967.9,N,0.0,0.0
1479050255.6,286046964.7,N,0.0,0.0
1479050275.5,286046959.7,N,0.0,0.0
1479050295.3,286046960.1,N,0.0,0.0
1479050315.1,286046959.1,N,0.0,0.0
1479050335.9,286046955.9,N,0.0,0.0
1479050355.7,286046952.3,N,0.0,0.0
1479050375.6,286046950.2,N,0.0,0.0
1479050395.4,286046948.8,N,0.0,0.0
1479050415.2,286046946.9,N,0.0,0.0
1479050435.1,286046946.8,N,0.0,0.0
1479050436.0,286046946.8,N,0.0,0.0
1479050455.8,286046945.2,N,0.0,0.0
1479050475.7,286046942.5,N,0.0,0.0
1479050495.5,286046940.6,N,0.0,0.0
1479050515.3,286046939.8,N,0.0,0.0
1479050535.2,286046935.7,N,0.0,0.0
1479050555.9,286046934.8,N,0.0,0.0
1479050575.7,286046933.3,N,0.0,0.0
1479050595.6,286046930.9,N,0.0,0.0
1479050615.4,286046931.9,N,0.0,0.0
1479050635.2,286046929.7,N,0.0,0.0
1479050655.1,286046930.5,N,0.0,0.0
1479050656.0,286046930.5,N,0.0,0.0
1479050675.8,286046930.2,N,0.0,0.0
1479050695.7,286046930.6,N,0.0,0.0
1479050715.5,286046930.1,N,0.0,0.0
1479050735.3,286046927.9,N,0.0,0.0
1479050755.2,286046926.7,N,0.0,0.0
1479050775.0,286046927.2,N,0.0,0.0
1479050775.9,286046927.2,N,0.0,0.0
1479050795.8,286046927.2,N,0.0,0.0
1479050815.6,286046928.5,N,0.0,0.0
1479050835.4,286046930.7,N,0.0,0.0
1479050855.3,286046929.3,N,0.0,0.0
1479050875.1,286046936.2,N,0.0,0.0
1479050895.8,286046937.5,N,0.0,0.0
1479050915.7,286046935.9,N,0.0,0.0
1479050935.5,286046935.5,N,0.0,0.0
1479050955.3,286046931.5,N,0.0,0.0
1479050975.2,286046930.5,N,0.0,0.0
1479050995.0,286046928.7,N,0.0,0.0
1479050995.9,286046928.7,N,0.0,0.0
1479051015.8,286046927.2,N,0.0,0.0
1479051035.6,286046928.7,N,0.0,0.0
1479051055.4,286046928.6,N,0.0,0.0
1479051075.3,286046928.8,N,0.0,0.0
1479051095.1,286046928.2,N,0.0,0.0
1479051115.9,286046927.9,N,0.0,0.0
1479051135.7,286046927.2,N,0.0,0.0
1479051155.5,286046926.1,N,0.0,0.0
1479051175.4,286046933.7,N,0.0,0.0
1479051195.2,286046936.3,N,0.0,0.0
1479051215.0,286046941.5,N,0.0,0.0
1479051215.9,286046941.5,N,0.0,0.0
1479051235.8,286046948.3,N,0.0,0.0
1479051255.6,286046944.6,N,0.0,0.0
1479051275.5,286046942.2,N,0.0,0.0
1479051295.3,286046943.1,N,0.0,0.0
1479051315.1,286046940.3,N,0.0,0.0
1479051335.9,286046934.3,N,0.0,0.0
1479051355.7,286046931.8,N,0.0,0.0
1479051375.5,286046928.2,N,0.0,0.0
1479051395.4,286046926.8,N,0.0,0.0
1479051415.2,286046924.3,N,0.0,0.0
1479051435.0,286046920.6,N,0.0,0.0
1479051436.0,286046920.6,N,0.0,0.0
1479051455.8,286046916.7,N,0.0,0.0
1479051475.6,286046914.9,N,0.0,0.0
1479051495.5,286046916.2,N,0.0,0.0
1479051515.3,286046916.2,N,0.0,0.0
1479051535.1,286046915.5,N,0.0,0.0
1479051555.9,286046920.4,N,0.0,0.0
1479051575.7,286046925.8,N,0.0,0.0
1479051595.6,286046926.5,N,0.0,0.0
1479051615.4,286046930.3,N,0.0,0.0
1479051635.2,286046929.5,N,0.0,0.0
1479051655.1,286046934.0,N,0.0,0.0
1479051656.0,286046934.0,N,0.0,0.0
1479051675.8,286046931.7,N,0.0,0.0
1479051695.6,286046928.0,N,0.0,0.0
1479051715.5,286046930.0,N,0.0,0.0
1479051735.3,286046933.8,N,0.0,0.0
1479051755.2,286046931.3,N,0.0,0.0
1479051775.9,286046935.6,N,0.0,0.0
1479051795.7,286046933.9,N,0.0,0.0
1479051815.6,286046937.2,N,0.0,0.0
1479051835.4,286046935.0,N,0.0,0.0
1479051855.2,286046934.7,N,0.0,0.0
1479051875.1,286046936.3,N,0.0,0.0
1479051876.0,286046936.3,N,0.0,0.0
1479051895.8,286046936.2,N,0.0,0.0
1479051915.7,286046936.2,N,0.0,0.0
1479051935.5,286046938.3,N,0.0,0.0
1479051955.3,286046938.7,N,0.0,0.0
1479051975.2,286046938.3,N,0.0,0.0
1479051995.0,286046943.5,N,0.0,0.0
1479051995.9,286046943.5,N,0.0,0.0
1479052015.7,286046939.4,N,0.0,0.0
1479052035.6,286046939.1,N,0.0,0.0
1479052055.4,286046939.4,N,0.0,0.0
1479052075.3,286046940.5,N,0.0,0.0
1479052095.1,286046943.5,N,0.0,0.0
1479052096.0,286046943.5,N,0.0,0.0
1479052115.8,286046940.1,N,0.0,0.0
1479052135.7,286046937.9,N,0.0,0.0
1479052155.5,286046937.6,N,0.0,0.0
1479052175.3,286046938.3,N,0.0,0.0
1479052195.2,286046939.9,N,0.0,0.0
1479052215.0,286046939.2,N,0.0,0.0
1479052215.9,286046939.2,N,0.0,0.0
1479052235.8,286046939.4,N,0.0,0.0
1479052255.6,286046939.6,N,0.0,0.0
1479052275.4,286046939.8,N,0.0,0.0
1479052295.3,286046941.2,N,0.0,0.0
1479052315.1,286046940.4,N,0.0,0.0
1479052335.8,286046938.0,N,0.0,0.0
1479052355.7,286046934.5,N,0.0,0.0
1479052375.5,286046935.1,N,0.0,0.0
1479052395.4,286046934.6,N,0.0,0.0
1479052415.2,286046932.0,N,0.0,0.0
1479052435.0,286046924.9,N,0.0,0.0
1479052435.9,286046924.9,N,0.0,0.0
1479052455.8,286046923.2,N,0.0,0.0
1479052475.6,286046924.8,N,0.0,0.0
1479052495.4,286046925.5,N,0.0,0.0
1479052515.3,286046924.4,N,0.0,0.0
1479052535.1,286046922.5,N,0.0,0.0
1479052555.9,286046924.1,N,0.0,0.0
1479052575.7,286046927.5,N,0.0,0.0
1479052595.5,286046930.7,N,0.0,0.0
1479052615.4,286046928.4,N,0.0,0.0
1479052635.2,286046927.2,N,0.0,0.0
1479052655.0,286046923.4,N,0.0,0.0
1479052656.0,286046923.4,N,0.0,0.0
1479052675.8,286046918.2,N,0.0,0.0
1479052695.6,286046916.0,N,0.0,0.0
1479052715.5,286046912.8,N,0.0,0.0
1479052735.3,286046910.3,N,0.0,0.0
1479052755.1,286046910.0,N,0.0,0.0
1479052775.9,286046906.8,N,0.0,0.0
1479052795.7,286046902.8,N,0.0,0.0
